Theta_e
328 327 327 326 326 326 325 325 325 325 325 325 325 325 326 326 325 325 325 325 326 326 326 326 326 326 326 325 325 324 324 324 324 324 324 324 324 324 324 324 324 324
328 328 327 327 327 326 326 326 325 325 325 325 325 325 325 326 326 326 326 325 325 325 326 326 326 326 326 326 326 326 325 325 325 325 325 325 325 324 324 324 324 324
329 328 328 327 327 327 326 326 326 325 325 325 325 325 325 326 326 326 326 326 326 325 325 325 326 326 326 326 327 326 326 326 326 326 325 325 325 325 325 324 324 324
329 328 328 328 327 327 327 326 326 326 325 325 325 325 325 325 325 326 326 326 326 326 325 325 325 326 326 326 327 327 327 327 326 326 326 326 326 325 325 325 325 324
329 329 328 328 327 327 327 326 326 326 326 325 325 325 325 325 325 326 326 326 327 326 326 326 325 325 325 325 326 326 326 327 327 327 327 326 326 326 326 326 325 324
329 328 328 328 328 327 327 326 326 326 326 326 326 325 325 325 325 325 326 326 327 327 327 326 326 326 325 325 325 326 326 326 326 327 327 326 326 326 326 326 325 325
328 328 328 328 328 328 327 327 326 326 326 326 326 326 325 326 326 325 326 326 326 327 327 327 327 326 326 326 326 326 325 326 326 326 326 326 326 326 326 325 325 324
328 328 328 328 328 328 327 327 327 326 326 326 325 326 325 325 326 326 326 326 326 327 327 327 327 327 326 326 326 326 326 326 326 326 326 326 326 326 325 325 325 324
327 327 328 328 327 328 327 327 327 327 326 326 325 326 325 325 326 326 326 326 326 327 327 327 327 327 327 326 326 326 326 326 326 326 326 326 326 326 325 325 325 324
327 326 327 328 327 327 328 327 328 327 326 326 326 326 325 325 326 325 326 326 326 326 326 327 327 327 327 327 326 326 326 326 326 326 326 326 326 326 325 325 325 324
326 326 326 327 327 327 327 327 328 327 327 326 326 326 325 325 326 325 326 326 326 326 327 326 327 327 327 327 326 326 326 326 326 326 326 326 326 325 325 324 323 323
325 325 326 326 327 327 327 327 327 327 327 327 326 326 326 326 326 326 326 326 326 326 327 327 327 327 327 327 326 326 326 326 326 326 326 325 325 325 325 324 323 323
323 324 325 326 326 326 327 327 327 327 326 326 327 327 326 326 326 326 326 326 326 327 327 327 327 327 327 326 326 326 326 326 326 326 326 326 326 324 324 324 324 323
320 322 324 325 325 326 326 326 326 326 326 326 327 327 327 327 326 326 326 326 326 326 327 327 327 326 326 326 326 326 326 326 325 325 325 325 325 324 323 324 324 323
317 319 321 323 324 324 325 325 325 325 326 326 326 326 326 326 326 326 326 326 326 326 326 326 326 326 326 326 326 326 326 326 325 325 324 324 323 323 323 323 322 322
315 316 318 319 321 322 322 323 324 324 325 325 325 326 326 325 325 325 325 325 325 325 326 326 326 326 326 326 325 324 324 323 322 321 321 321 321 321 321 321 321 322
314 315 316 317 318 319 321 322 323 323 324 324 325 325 325 325 325 324 324 324 324 325 325 326 326 326 325 324 323 322 321 320 319 319 319 319 320 320 319 320 321 321
312 313 314 315 317 318 320 321 322 322 323 323 323 324 323 323 323 323 324 324 324 325 325 325 325 324 323 322 321 320 319 319 319 319 318 318 318 320 320 320 320 320
310 312 314 315 316 318 319 320 321 321 321 322 322 322 321 322 322 323 323 323 324 324 323 323 322 321 320 319 317 316 317 318 319 319 319 318 318 319 319 318 318 318
309 311 313 314 316 317 318 319 319 319 319 319 320 320 320 320 321 321 322 322 322 322 321 320 318 317 317 316 315 316 316 317 317 317 317 316 317 317 317 317 317 317
309 311 312 313 315 316 316 317 317 317 317 317 318 319 319 319 320 320 320 320 319 318 317 316 316 316 316 316 316 316 316 316 316 315 315 316 316 317 317 316 316 316
310 311 312 313 314 314 314 314 314 315 316 317 317 317 317 317 317 317 317 316 315 315 315 315 315 315 314 314 314 314 314 315 315 314 314 314 315 315 315 316 316 315
310 311 311 312 312 312 312 312 313 313 314 314 314 314 313 313 313 313 313 313 313 313 313 313 312 312 312 313 313 313 313 313 313 313 313 313 313 313 314 315 315 314
309 309 310 310 310 310 310 310 310 311 311 311 311 310 310 309 310 310 310 311 311 311 311 311 311 311 311 311 311 311 311 311 312 313 313 313 313 313 313 314 313 312
308 308 309 309 308 308 308 308 308 308 308 308 307 307 307 307 307 308 308 308 308 308 309 309 309 310 310 310 310 311 311 312 312 312 312 312 313 313 312 312 312 311
308 308 308 308 308 307 306 305 305 304 305 305 305 305 305 306 306 306 306 307 307 307 308 309 309 310 310 310 310 311 311 312 311 311 311 312 313 312 311 310 310 310
Wind_Speed
47 46 45 45 45 45 43 42 40 40 40 41 41 42 43 43 42 40 42 44 44 44 45 43 41 41 40 40 39 38 39 39 39 39 37 37 39 39 38 38 37 36
46 46 45 44 44 44 43 42 42 42 42 42 42 43 42 40 39 39 41 41 42 44 45 43 41 40 39 39 38 37 38 39 40 39 37 37 38 37 38 38 38 38
46 46 46 45 44 44 44 44 43 42 42 42 42 42 41 40 38 38 40 40 41 42 43 42 42 41 40 39 38 37 38 39 39 38 37 37 37 36 37 37 38 38
45 46 46 46 46 45 45 43 42 42 42 42 43 42 41 39 38 38 39 39 40 40 40 41 41 41 41 40 38 38 38 39 38 36 35 36 37 37 37 37 37 38
44 45 45 45 46 45 44 42 42 43 43 43 43 41 40 39 39 39 38 38 39 39 38 38 39 40 40 39 39 38 39 38 37 35 34 36 37 37 38 37 36 36
41 43 44 45 45 45 44 43 44 44 43 43 42 40 39 39 39 39 38 38 37 37 38 37 37 38 39 38 38 39 39 38 36 35 34 36 36 36 36 36 36 36
41 42 44 45 45 45 45 44 44 43 42 42 40 40 40 39 39 39 38 37 36 36 37 37 36 36 36 37 38 39 39 38 37 35 35 36 35 35 35 34 34 35
42 42 43 43 44 44 44 44 43 43 42 40 40 40 40 38 39 38 37 36 36 36 36 36 36 36 35 36 37 38 38 37 36 35 34 35 34 33 33 32 32 32
41 41 41 41 41 42 42 42 43 43 42 40 40 40 39 38 38 37 36 36 36 36 36 36 35 36 35 36 37 37 37 36 35 35 34 34 34 34 34 33 33 33
39 40 39 39 40 41 42 43 44 43 41 40 40 39 38 37 37 36 36 36 36 37 37 36 36 36 36 36 36 36 36 36 36 36 36 36 36 36 36 37 37 38
38 39 39 40 41 42 43 44 44 43 41 40 39 38 37 36 36 36 36 36 37 38 37 37 37 36 36 36 36 36 36 36 36 36 36 37 37 37 36 36 35 34
38 39 40 41 42 42 43 43 42 41 40 39 38 36 36 36 36 36 36 37 37 37 37 37 37 37 37 36 36 35 35 35 35 35 35 35 34 33 33 32 30 28
39 40 41 41 41 42 42 41 40 39 38 37 36 36 36 36 36 36 36 36 36 36 36 36 36 36 36 35 34 33 33 33 34 35 35 34 33 32 33 34 34 34
40 40 39 39 40 40 39 39 39 38 36 35 35 35 35 35 35 34 35 35 34 35 34 34 34 34 33 33 31 30 31 32 33 33 33 34 34 34 33 34 35 36
36 35 35 36 36 36 36 36 36 35 34 33 33 33 33 33 32 32 32 32 32 31 30 30 30 30 28 27 27 29 31 31 29 27 27 28 28 27 27 28 30 32
31 31 32 32 32 32 32 32 31 31 31 30 30 31 30 30 30 30 30 30 29 28 27 27 26 26 25 25 26 28 27 24 22 21 22 23 25 25 26 27 28 30
28 28 28 28 27 27 28 28 28 28 28 28 28 28 28 27 27 27 27 27 26 26 25 25 24 24 23 23 23 21 20 19 20 21 22 23 25 26 27 28 29 30
26 25 24 24 24 25 26 26 26 26 25 26 26 25 25 25 25 25 25 24 24 24 23 23 22 21 20 20 20 20 21 22 23 24 24 24 24 24 25 26 26 26
25 24 23 23 23 24 24 24 24 25 25 25 25 24 24 23 23 23 23 23 23 23 23 22 21 21 22 22 22 23 23 23 23 24 25 25 23 22 22 22 22 21
24 24 24 24 24 24 24 24 24 25 25 24 24 23 23 23 23 23 23 23 23 23 22 22 22 22 23 24 23 21 21 20 19 19 20 21 20 20 20 20 20 20
24 25 25 25 25 24 24 24 24 24 24 24 24 24 24 24 24 23 23 23 22 22 22 22 21 21 21 21 20 18 17 18 19 18 18 18 19 20 20 21 21 21
25 26 26 25 25 25 25 25 25 25 25 24 24 24 24 24 24 24 24 23 22 22 21 20 19 18 18 19 19 19 18 19 20 21 20 19 19 19 19 19 20 21
28 28 27 27 26 26 27 27 27 27 26 26 26 25 24 24 24 24 23 23 23 22 22 22 21 20 20 19 19 20 20 18 19 21 22 22 22 21 20 19 19 19
29 29 29 28 29 29 29 29 28 28 28 28 27 27 26 25 25 24 24 23 23 23 22 21 20 20 20 19 19 19 20 19 19 20 21 21 21 21 21 20 19 18
30 30 30 30 30 30 30 30 29 29 28 27 27 26 26 25 24 24 23 23 23 22 21 20 20 19 20 20 20 19 19 20 20 19 18 18 18 18 18 18 17 16
31 32 32 32 31 30 29 29 28 27 27 26 26 25 25 24 23 23 22 22 21 20 19 19 19 18 17 16 17 16 15 16 17 17 16 16 15 15 15 15 14 13
Wind_Direction
221 222 223 224 225 227 228 228 228 228 228 228 228 229 230 231 231 229 229 231 231 233 235 235 235 236 236 237 237 237 237 239 240 240 240 239 239 239 239 238 237 236
222 222 223 225 226 228 229 229 229 229 230 231 231 232 233 233 232 230 230 231 232 233 235 235 236 236 236 236 236 236 237 238 239 240 239 240 241 240 239 239 238 237
222 223 223 224 226 228 229 230 231 231 232 233 234 234 234 234 233 232 232 231 232 233 234 235 235 236 236 236 236 236 237 238 239 239 239 240 241 241 240 239 238 238
223 223 224 225 227 228 230 230 231 232 233 234 235 235 235 235 234 234 233 232 232 233 234 234 235 235 235 236 236 237 239 240 241 240 240 241 242 242 242 241 239 239
225 225 225 226 227 229 230 229 231 232 232 234 235 235 235 235 235 235 234 233 232 233 233 234 234 235 235 235 236 237 239 241 242 241 240 241 241 241 242 241 241 241
226 226 226 227 228 229 229 230 231 232 232 234 235 235 235 234 235 235 234 233 233 233 233 233 234 234 235 235 236 237 239 240 241 240 240 241 242 242 242 241 241 242
226 227 227 227 228 229 230 231 232 233 233 235 235 235 235 234 234 235 234 234 234 234 234 233 233 234 234 234 235 237 238 239 240 240 239 241 241 242 242 241 240 240
227 227 227 227 228 228 230 231 232 234 234 234 235 236 235 234 234 235 234 235 235 236 236 234 234 234 234 233 234 236 237 237 238 238 238 239 239 240 241 242 241 241
227 227 227 227 227 228 230 231 233 235 235 234 235 236 236 235 236 236 236 236 237 237 237 236 236 235 235 234 234 235 235 236 237 237 238 238 238 240 242 243 245 246
228 227 227 227 227 228 230 232 234 235 235 235 235 236 236 236 237 237 237 238 237 238 238 237 238 237 235 235 235 235 235 236 237 237 238 239 241 242 243 243 244 245
228 227 226 226 227 228 230 232 234 235 235 235 235 236 236 237 238 237 238 238 237 238 238 238 238 238 237 236 236 236 236 237 237 237 238 240 241 242 243 243 241 239
228 227 226 227 227 228 230 232 233 234 235 235 235 236 237 238 238 237 237 237 238 238 238 238 239 239 238 237 236 236 236 236 237 239 241 242 241 241 244 244 244 245
229 228 227 228 228 229 231 232 233 234 235 236 236 237 237 237 237 237 237 238 239 239 239 239 239 238 237 236 236 236 237 239 240 240 240 241 243 246 247 246 247 250
231 229 229 230 231 231 232 233 234 235 236 237 237 236 236 237 237 238 238 238 238 238 238 238 237 236 236 235 236 239 242 242 241 239 239 241 244 245 245 246 248 250
232 231 231 232 232 232 232 233 234 235 235 235 235 235 236 237 237 237 236 234 233 233 234 234 234 234 235 237 241 244 243 241 240 241 243 246 245 245 246 249 250 249
232 231 231 231 231 231 232 232 232 233 233 232 233 233 234 234 234 233 232 231 229 229 229 230 232 234 238 242 245 242 239 239 244 249 252 253 252 252 255 257 256 253
229 229 228 228 229 229 230 230 229 229 228 228 228 229 229 229 228 227 227 228 228 227 228 228 229 230 231 234 235 237 242 250 257 259 257 256 256 256 258 261 262 259
225 224 225 226 225 225 225 224 223 223 222 222 223 223 222 221 221 222 223 223 223 224 224 224 225 227 229 234 241 249 256 259 260 260 258 257 258 259 259 259 260 258
223 221 222 221 220 220 219 218 218 218 218 218 218 217 217 215 215 217 218 218 218 217 218 221 226 233 241 247 251 251 249 251 254 254 253 253 255 257 256 255 257 258
219 218 218 218 217 216 215 214 215 215 215 215 214 212 211 211 211 211 212 214 215 218 224 232 236 240 242 243 243 241 241 245 248 247 247 248 251 255 256 257 258 259
214 214 214 214 213 211 210 211 211 211 210 209 209 209 209 210 210 212 214 218 224 229 234 236 235 234 233 233 234 235 237 240 243 246 248 248 249 253 255 256 255 257
210 210 209 209 208 206 206 206 206 206 206 205 206 208 211 213 215 219 222 225 227 227 225 223 224 227 230 234 237 239 240 240 242 245 249 250 250 251 253 253 253 255
210 208 207 206 204 204 204 205 206 206 205 206 207 208 211 214 216 217 219 219 218 218 220 223 226 229 231 232 234 236 238 238 238 240 244 249 250 250 252 254 254 256
209 208 207 205 203 204 205 205 206 207 207 209 209 210 211 211 211 211 211 214 216 218 221 221 221 223 226 227 228 230 233 234 237 240 240 242 245 247 248 250 253 256
208 207 207 205 204 205 206 205 206 207 208 208 208 209 207 205 207 208 209 212 215 215 216 215 216 220 223 224 225 228 230 232 235 238 238 239 244 246 246 247 249 252
207 206 207 206 205 206 206 206 206 204 202 201 201 203 202 200 201 203 204 206 207 208 212 214 214 215 216 216 218 221 225 228 229 231 234 238 241 243 245 247 248 250